| time (UTC) | temp C | wind direction | speed KPH | gust KPH | rain 1hr cm | rain 24hr cm | rain mn cm | humidity % | barometer mb |
| 20260507174549 | 14 | 123 | 6.4 | 12.9 | 0.00 | 0.81 | 0.43 | 63 | 1010.2 |
| 20260507174049 | 15 | 150 | 9.7 | 14.5 | 0.00 | 0.81 | 0.43 | 60 | 1010.5 |
| 20260507173549 | 14 | 176 | 6.4 | 14.5 | 0.00 | 0.81 | 0.43 | 61 | 1010.6 |
| 20260507173049 | 15 | 180 | 3.2 | 12.9 | 0.00 | 0.81 | 0.43 | 63 | 1010.6 |
| 20260507172549 | 13 | 134 | 4.8 | 8.0 | 0.00 | 0.81 | 0.43 | 60 | 1010.4 |
| 20260507172049 | 14 | 98 | 4.8 | 12.9 | 0.00 | 0.81 | 0.43 | 58 | 1010.8 |
| 20260507171549 | 15 | 128 | 4.8 | 14.5 | 0.00 | 0.81 | 0.43 | 59 | 1010.8 |
| 20260507171051 | 15 | 140 | 8.0 | 11.3 | 0.00 | 0.81 | 0.43 | 59 | 1010.9 |
| 20260507170549 | 15 | 96 | 6.4 | 16.1 | 0.00 | 0.81 | 0.43 | 67 | 1011.1 |
| 20260507170049 | 15 | 150 | 3.2 | 11.3 | 0.00 | 0.81 | 0.43 | 64 | 1011.0 |
| 20260507165549 | 15 | 90 | 4.8 | 9.7 | 0.00 | 0.81 | 0.43 | 64 | 1011.1 |
| 20260507165051 | 13 | 125 | 4.8 | 9.7 | 0.00 | 0.81 | 0.43 | 64 | 1011.3 |
| 20260507164549 | 13 | 130 | 3.2 | 8.0 | 0.00 | 0.81 | 0.43 | 66 | 1011.5 |
| 20260507164049 | 13 | 146 | 1.6 | 4.8 | 0.00 | 0.81 | 0.43 | 67 | 1011.7 |
| 20260507163549 | 13 | 75 | 1.6 | 4.8 | 0.00 | 0.81 | 0.43 | 61 | 1011.6 |
| 20260507163049 | 13 | 140 | 1.6 | 4.8 | 0.00 | 0.81 | 0.43 | 64 | 1011.6 |
| 20260507162549 | 13 | 136 | 1.6 | 6.4 | 0.00 | 0.81 | 0.43 | 62 | 1011.7 |
| 20260507162049 | 13 | 92 | 3.2 | 4.8 | 0.00 | 0.81 | 0.43 | 61 | 1011.5 |
| 20260507161549 | 13 | 159 | 3.2 | 4.8 | 0.00 | 0.81 | 0.43 | 58 | 1012.1 |
| 20260507161051 | 13 | 24 | 3.2 | 8.0 | 0.00 | 0.81 | 0.43 | 60 | 1011.9 |
| 20260507160549 | 13 | 42 | 3.2 | 14.5 | 0.00 | 0.81 | 0.43 | 60 | 1011.8 |
| 20260507160049 | 13 | 42 | 3.2 | 6.4 | 0.00 | 0.81 | 0.43 | 60 | 1011.9 |
| 20260507155549 | 13 | 286 | 4.8 | 11.3 | 0.00 | 0.81 | 0.43 | 60 | 1011.8 |
| 20260507155049 | 13 | 52 | 1.6 | 8.0 | 0.00 | 0.81 | 0.43 | 60 | 1011.8 |
| 20260507154549 | 13 | 13 | 1.6 | 3.2 | 0.00 | 0.81 | 0.43 | 59 | 1012.0 |
| 20260507154049 | 13 | 96 | 3.2 | 8.0 | 0.00 | 0.81 | 0.43 | 59 | 1011.8 |
| 20260507153549 | 13 | 76 | 1.6 | 3.2 | 0.00 | 0.81 | 0.43 | 66 | 1012.0 |
| 20260507153051 | 13 | 29 | 1.6 | 8.0 | 0.00 | 0.81 | 0.43 | 62 | 1011.8 |
| 20260507152549 | 12 | 306 | 1.6 | 8.0 | 0.00 | 0.81 | 0.43 | 62 | 1011.8 |
| 20260507152049 | 12 | 85 | 1.6 | 4.8 | 0.00 | 0.81 | 0.43 | 64 | 1012.0 |
| 20260507151549 | 12 | 107 | 3.2 | 8.0 | 0.00 | 0.81 | 0.43 | 63 | 1012.1 |
| 20260507151049 | 12 | 343 | 1.6 | 6.4 | 0.00 | 0.81 | 0.43 | 66 | 1012.0 |
| 20260507150549 | 12 | 50 | 1.6 | 4.8 | 0.00 | 0.81 | 0.43 | 65 | 1012.1 |
| 20260507150049 | 12 | 14 | 1.6 | 4.8 | 0.00 | 0.81 | 0.43 | 66 | 1012.1 |
| 20260507145550 | 11 | 88 | 0.0 | 4.8 | 0.00 | 0.81 | 0.43 | 65 | 1012.2 |
| 20260507145052 | 11 | 13 | 1.6 | 3.2 | 0.00 | 0.81 | 0.43 | 67 | 1012.3 |
| 20260507144550 | 11 | 44 | 1.6 | 4.8 | 0.00 | 0.81 | 0.43 | 69 | 1012.4 |
| 20260507144050 | 11 | 48 | 3.2 | 6.4 | 0.00 | 0.81 | 0.43 | 68 | 1012.3 |
| 20260507143550 | 11 | 13 | 3.2 | 6.4 | 0.00 | 0.81 | 0.43 | 65 | 1012.4 |
| 20260507143050 | 11 | 24 | 3.2 | 4.8 | 0.00 | 0.81 | 0.43 | 68 | 1012.4 |
| 20260507142550 | 11 | 15 | 3.2 | 4.8 | 0.00 | 0.81 | 0.43 | 66 | 1012.5 |
| 20260507142050 | 11 | 28 | 3.2 | 8.0 | 0.00 | 0.81 | 0.43 | 65 | 1012.6 |
| 20260507141550 | 11 | 9 | 3.2 | 6.4 | 0.00 | 0.81 | 0.43 | 66 | 1012.7 |
| 20260507141052 | 11 | 13 | 3.2 | 8.0 | 0.00 | 0.81 | 0.43 | 66 | 1012.6 |
| 20260507140550 | 11 | 34 | 3.2 | 4.8 | 0.00 | 0.81 | 0.43 | 68 | 1012.6 |
| 20260507140050 | 11 | 5 | 1.6 | 6.4 | 0.00 | 0.81 | 0.43 | 68 | 1012.8 |
| 20260507135550 | 11 | 45 | 3.2 | 4.8 | 0.00 | 0.97 | 0.43 | 68 | 1012.6 |
| 20260507135050 | 11 | 5 | 3.2 | 8.0 | 0.00 | 0.97 | 0.43 | 69 | 1012.6 |
| 20260507134550 | 11 | 69 | 3.2 | 6.4 | 0.00 | 0.97 | 0.43 | 70 | 1012.8 |
| 20260507134050 | 11 | 0 | 4.8 | 6.4 | 0.00 | 0.97 | 0.43 | 70 | 1012.8 |
| 20260507133550 | 11 | 11 | 4.8 | 9.7 | 0.00 | 0.97 | 0.43 | 69 | 1012.8 |
| 20260507133052 | 11 | 333 | 4.8 | 11.3 | 0.00 | 0.97 | 0.43 | 71 | 1012.9 |
| 20260507132550 | 11 | 51 | 6.4 | 12.9 | 0.00 | 0.97 | 0.43 | 71 | 1012.8 |
| 20260507132050 | 11 | 9 | 4.8 | 14.5 | 0.00 | 0.97 | 0.43 | 71 | 1012.9 |
| 20260507131550 | 11 | 334 | 3.2 | 9.7 | 0.00 | 0.97 | 0.43 | 71 | 1012.9 |
| 20260507131050 | 11 | 344 | 4.8 | 8.0 | 0.00 | 0.97 | 0.43 | 73 | 1013.0 |
| 20260507130550 | 11 | 31 | 4.8 | 6.4 | 0.00 | 0.97 | 0.43 | 72 | 1012.7 |
| 20260507130050 | 11 | 47 | 4.8 | 6.4 | 0.00 | 0.97 | 0.43 | 71 | 1012.7 |
| 20260507125550 | 11 | 32 | 3.2 | 6.4 | 0.00 | 1.17 | 0.43 | 75 | 1012.7 |
| 20260507125052 | 11 | 34 | 3.2 | 6.4 | 0.00 | 1.17 | 0.43 | 77 | 1012.6 |
| 20260507124550 | 11 | 22 | 3.2 | 8.0 | 0.00 | 1.17 | 0.43 | 77 | 1012.6 |
| 20260507124050 | 11 | 9 | 4.8 | 6.4 | 0.00 | 1.17 | 0.43 | 78 | 1012.7 |
| 20260507123550 | 11 | 26 | 4.8 | 11.3 | 0.00 | 1.17 | 0.43 | 78 | 1012.6 |
| 20260507123050 | 11 | 341 | 3.2 | 9.7 | 0.00 | 1.17 | 0.43 | 79 | 1012.6 |
| 20260507122550 | 11 | 25 | 1.6 | 4.8 | 0.00 | 1.17 | 0.43 | 80 | 1012.4 |
| 20260507122050 | 11 | 30 | 1.6 | 6.4 | 0.00 | 1.17 | 0.43 | 80 | 1012.6 |
| 20260507121550 | 11 | 14 | 3.2 | 4.8 | 0.00 | 1.17 | 0.43 | 79 | 1012.5 |
| 20260507121052 | 11 | 355 | 4.8 | 9.7 | 0.00 | 1.17 | 0.43 | 80 | 1012.3 |
| 20260507120550 | 11 | 5 | 4.8 | 8.0 | 0.00 | 1.17 | 0.43 | 81 | 1012.3 |
| 20260507120050 | 11 | 331 | 4.8 | 14.5 | 0.00 | 1.17 | 0.43 | 80 | 1012.3 |
| 20260507115550 | 11 | 24 | 3.2 | 4.8 | 0.00 | 1.47 | 0.43 | 82 | 1012.2 |
| 20260507115050 | 11 | 5 | 3.2 | 6.4 | 0.00 | 1.47 | 0.43 | 81 | 1012.2 |
| 20260507114550 | 11 | 10 | 1.6 | 4.8 | 0.00 | 1.47 | 0.43 | 82 | 1012.3 |
| 20260507114050 | 11 | 17 | 1.6 | 3.2 | 0.00 | 1.47 | 0.43 | 81 | 1012.4 |
| 20260507113550 | 11 | 44 | 3.2 | 4.8 | 0.00 | 1.47 | 0.43 | 81 | 1012.3 |
| 20260507113052 | 11 | 32 | 3.2 | 4.8 | 0.00 | 1.47 | 0.43 | 81 | 1012.2 |
| 20260507112550 | 11 | 355 | 1.6 | 4.8 | 0.00 | 1.47 | 0.43 | 82 | 1012.1 |
| 20260507112050 | 11 | 21 | 1.6 | 4.8 | 0.00 | 1.47 | 0.43 | 81 | 1012.0 |
| 20260507111550 | 11 | 26 | 1.6 | 4.8 | 0.00 | 1.47 | 0.43 | 81 | 1011.9 |
| 20260507111052 | 11 | 20 | 1.6 | 6.4 | 0.00 | 1.47 | 0.43 | 83 | 1011.8 |
| 20260507110550 | 11 | 80 | 1.6 | 3.2 | 0.00 | 1.47 | 0.43 | 83 | 1011.9 |
| 20260507110050 | 11 | 50 | 3.2 | 6.4 | 0.00 | 1.47 | 0.43 | 83 | 1011.9 |
| 20260507105550 | 11 | 13 | 1.6 | 3.2 | 0.00 | 1.52 | 0.43 | 85 | 1011.9 |
| 20260507105050 | 11 | 67 | 1.6 | 3.2 | 0.00 | 1.52 | 0.43 | 85 | 1011.9 |
| 20260507104550 | 11 | 36 | 3.2 | 6.4 | 0.00 | 1.52 | 0.43 | 88 | 1011.7 |
| 20260507104050 | 11 | 19 | 1.6 | 6.4 | 0.00 | 1.52 | 0.43 | 89 | 1011.8 |
| 20260507103550 | 11 | 50 | 1.6 | 3.2 | 0.00 | 1.52 | 0.43 | 89 | 1011.8 |
| 20260507103052 | 11 | 17 | 1.6 | 4.8 | 0.00 | 1.52 | 0.43 | 89 | 1011.8 |
| 20260507102550 | 11 | 40 | 1.6 | 1.6 | 0.00 | 1.52 | 0.43 | 90 | 1011.7 |
| 20260507102050 | 11 | 343 | 1.6 | 3.2 | 0.00 | 1.52 | 0.43 | 92 | 1011.7 |
| 20260507101550 | 11 | 9 | 1.6 | 3.2 | 0.00 | 1.52 | 0.43 | 92 | 1011.6 |
| 20260507101050 | 11 | 24 | 0.0 | 1.6 | 0.00 | 1.52 | 0.43 | 92 | 1011.6 |
| 20260507100550 | 11 | 73 | 0.0 | 3.2 | 0.00 | 1.52 | 0.43 | 92 | 1011.7 |
| 20260507100050 | 11 | 74 | 0.0 | 1.6 | 0.00 | 1.52 | 0.43 | 92 | 1011.5 |
| 20260507095550 | 11 | 74 | 0.0 | 1.6 | 0.00 | 1.52 | 0.43 | 92 | 1011.5 |
| 20260507095052 | 11 | 75 | 0.0 | 1.6 | 0.00 | 1.52 | 0.43 | 93 | 1011.4 |
| 20260507094550 | 11 | 74 | 0.0 | 0.0 | 0.00 | 1.52 | 0.43 | 93 | 1011.4 |
| 20260507094050 | 11 | 74 | 0.0 | 3.2 | 0.00 | 1.52 | 0.43 | 93 | 1011.4 |
| 20260507093550 | 11 | 74 | 0.0 | 1.6 | 0.00 | 1.52 | 0.43 | 93 | 1011.4 |
| 20260507093050 | 11 | 74 | 0.0 | 0.0 | 0.00 | 1.52 | 0.43 | 92 | 1011.3 |
| 20260507092550 | 11 | 75 | 0.0 | 3.2 | 0.00 | 1.52 | 0.43 | 93 | 1011.4 |
| 20260507092050 | 11 | 74 | 0.0 | 0.0 | 0.00 | 1.52 | 0.43 | 92 | 1011.5 |
| 20260507091550 | 11 | 74 | 0.0 | 0.0 | 0.00 | 1.52 | 0.43 | 92 | 1011.3 |
| 20260507091052 | 11 | 74 | 0.0 | 3.2 | 0.00 | 1.52 | 0.43 | 92 | 1011.3 |
| 20260507090550 | 11 | 74 | 0.0 | 1.6 | 0.00 | 1.52 | 0.43 | 91 | 1011.1 |
| 20260507090050 | 11 | 82 | 0.0 | 3.2 | 0.00 | 1.52 | 0.43 | 91 | 1011.0 |
| 20260507085550 | 11 | 97 | 0.0 | 1.6 | 0.00 | 1.52 | 0.43 | 91 | 1011.0 |
| 20260507085050 | 11 | 97 | 0.0 | 3.2 | 0.00 | 1.52 | 0.43 | 90 | 1011.1 |
| 20260507084550 | 11 | 18 | 1.6 | 3.2 | 0.00 | 1.52 | 0.43 | 90 | 1011.0 |
| 20260507084050 | 11 | 24 | 1.6 | 4.8 | 0.00 | 1.52 | 0.43 | 90 | 1011.2 |
| 20260507083550 | 11 | 10 | 1.6 | 4.8 | 0.00 | 1.52 | 0.43 | 91 | 1011.2 |
| 20260507083052 | 11 | 34 | 0.0 | 1.6 | 0.00 | 1.52 | 0.43 | 91 | 1011.3 |
| 20260507082550 | 11 | 34 | 1.6 | 1.6 | 0.00 | 1.52 | 0.43 | 90 | 1011.1 |
| 20260507082050 | 11 | 15 | 1.6 | 3.2 | 0.00 | 1.52 | 0.43 | 90 | 1011.1 |
| 20260507081550 | 11 | 19 | 1.6 | 4.8 | 0.00 | 1.52 | 0.43 | 90 | 1011.2 |
| 20260507081050 | 11 | 0 | 1.6 | 4.8 | 0.00 | 1.52 | 0.43 | 90 | 1011.1 |
| 20260507080550 | 11 | 24 | 1.6 | 3.2 | 0.00 | 1.52 | 0.43 | 91 | 1011.1 |
| 20260507080050 | 11 | 0 | 1.6 | 4.8 | 0.00 | 1.52 | 0.43 | 91 | 1011.1 |
| 20260507075550 | 11 | 332 | 1.6 | 4.8 | 0.00 | 1.52 | 0.43 | 91 | 1011.2 |
| 20260507075052 | 11 | 61 | 0.0 | 3.2 | 0.00 | 1.52 | 0.43 | 91 | 1011.0 |
| 20260507074550 | 11 | 73 | 1.6 | 3.2 | 0.00 | 1.52 | 0.43 | 91 | 1010.6 |
| 20260507074050 | 11 | 104 | 1.6 | 3.2 | 0.03 | 1.52 | 0.43 | 90 | 1010.5 |
| 20260507073550 | 11 | 44 | 3.2 | 4.8 | 0.03 | 1.52 | 0.43 | 90 | 1010.5 |
| 20260507073050 | 11 | 11 | 3.2 | 4.8 | 0.03 | 1.52 | 0.43 | 90 | 1010.5 |
| 20260507072550 | 11 | 15 | 1.6 | 8.0 | 0.03 | 1.52 | 0.43 | 91 | 1010.6 |
| 20260507072050 | 11 | 19 | 1.6 | 8.0 | 0.03 | 1.52 | 0.43 | 91 | 1010.6 |
| 20260507071550 | 11 | 37 | 3.2 | 4.8 | 0.03 | 1.52 | 0.43 | 91 | 1010.5 |
| 20260507071052 | 11 | 13 | 4.8 | 8.0 | 0.03 | 1.52 | 0.43 | 91 | 1010.4 |
| 20260507070550 | 11 | 30 | 3.2 | 12.9 | 0.03 | 1.52 | 0.43 | 91 | 1010.4 |
| 20260507070050 | 11 | 13 | 1.6 | 4.8 | 0.03 | 1.52 | 0.43 | 91 | 1010.5 |
| 20260507065550 | 11 | 348 | 1.6 | 4.8 | 0.03 | 1.52 | 0.43 | 91 | 1010.7 |
| 20260507065050 | 12 | 355 | 3.2 | 4.8 | 0.03 | 1.52 | 0.43 | 91 | 1010.6 |
| 20260507064550 | 12 | 5 | 4.8 | 8.0 | 0.03 | 1.52 | 0.43 | 91 | 1010.5 |
| 20260507064050 | 12 | 344 | 3.2 | 6.4 | 0.00 | 1.50 | 0.41 | 91 | 1010.6 |
| 20260507063550 | 12 | 355 | 3.2 | 8.0 | 0.00 | 1.50 | 0.41 | 91 | 1010.4 |
| 20260507063052 | 12 | 45 | 4.8 | 12.9 | 0.00 | 1.50 | 0.41 | 91 | 1010.4 |
| 20260507062550 | 12 | 5 | 4.8 | 9.7 | 0.00 | 1.50 | 0.41 | 91 | 1010.6 |
| 20260507062050 | 12 | 351 | 6.4 | 8.0 | 0.00 | 1.50 | 0.41 | 91 | 1010.5 |
| 20260507061550 | 12 | 0 | 6.4 | 17.7 | 0.03 | 1.50 | 0.41 | 91 | 1010.6 |
| 20260507061052 | 12 | 9 | 6.4 | 14.5 | 0.03 | 1.50 | 0.41 | 91 | 1010.7 |
| 20260507060550 | 12 | 320 | 8.0 | 16.1 | 0.05 | 1.50 | 0.41 | 91 | 1010.9 |
| 20260507060050 | 12 | 340 | 9.7 | 14.5 | 0.05 | 1.50 | 0.41 | 92 | 1010.9 |
| 20260507055550 | 12 | 31 | 9.7 | 17.7 | 0.08 | 1.50 | 0.41 | 92 | 1010.5 |
| 20260507055050 | 12 | 34 | 8.0 | 14.5 | 0.10 | 1.50 | 0.41 | 92 | 1010.4 |
| 20260507054550 | 12 | 24 | 6.4 | 17.7 | 0.15 | 1.50 | 0.41 | 93 | 1010.5 |
| 20260507054050 | 12 | 9 | 6.4 | 11.3 | 0.18 | 1.50 | 0.41 | 93 | 1010.4 |
| 20260507053550 | 12 | 5 | 6.4 | 14.5 | 0.20 | 1.50 | 0.41 | 93 | 1010.1 |
| 20260507053052 | 13 | 28 | 3.2 | 12.9 | 0.23 | 1.50 | 0.41 | 93 | 1010.1 |
| 20260507052550 | 13 | 13 | 1.6 | 4.8 | 0.23 | 1.50 | 0.41 | 93 | 1010.3 |
| 20260507052050 | 13 | 40 | 1.6 | 4.8 | 0.23 | 1.50 | 0.41 | 93 | 1010.4 |
| 20260507051550 | 13 | 30 | 3.2 | 8.0 | 0.23 | 1.47 | 0.38 | 93 | 1010.3 |
| 20260507051050 | 12 | 329 | 3.2 | 8.0 | 0.25 | 1.47 | 0.38 | 93 | 1010.5 |
| 20260507050550 | 12 | 107 | 1.6 | 4.8 | 0.25 | 1.45 | 0.36 | 92 | 1009.8 |
| 20260507050050 | 12 | 86 | 1.6 | 6.4 | 0.30 | 1.45 | 0.36 | 92 | 1009.9 |
| 20260507045550 | 13 | 84 | 3.2 | 3.2 | 0.33 | 1.42 | 0.33 | 92 | 1010.0 |
| 20260507045052 | 13 | 35 | 4.8 | 9.7 | 0.36 | 1.40 | 0.30 | 91 | 1010.4 |
| 20260507044550 | 13 | 12 | 3.2 | 11.3 | 0.36 | 1.35 | 0.25 | 91 | 1010.4 |
| 20260507044050 | 13 | 340 | 1.6 | 6.4 | 0.41 | 1.32 | 0.23 | 91 | 1010.4 |
| 20260507043550 | 13 | 349 | 3.2 | 6.4 | 0.41 | 1.30 | 0.20 | 91 | 1010.1 |
| 20260507043050 | 13 | 10 | 4.8 | 4.8 | 0.38 | 1.27 | 0.18 | 91 | 1010.1 |
| 20260507042550 | 13 | 0 | 4.8 | 12.9 | 0.38 | 1.27 | 0.18 | 92 | 1010.2 |
| 20260507042050 | 13 | 30 | 3.2 | 9.7 | 0.41 | 1.27 | 0.18 | 92 | 1010.2 |
| 20260507041550 | 13 | 22 | 1.6 | 4.8 | 0.38 | 1.24 | 0.15 | 92 | 1010.4 |
| 20260507041052 | 13 | 351 | 1.6 | 4.8 | 0.36 | 1.22 | 0.13 | 92 | 1010.5 |
| 20260507040550 | 13 | 355 | 1.6 | 4.8 | 0.33 | 1.19 | 0.10 | 91 | 1010.6 |
| 20260507040050 | 13 | 355 | 1.6 | 3.2 | 0.28 | 1.14 | 0.05 | 91 | 1010.6 |
| 20260507035550 | 14 | 312 | 3.2 | 6.4 | 0.23 | 1.09 | 0.00 | 90 | 1010.9 |
| 20260507035050 | 14 | 328 | 4.8 | 9.7 | 0.18 | 1.04 | 1.04 | 89 | 1010.6 |
| 20260507034550 | 14 | 280 | 3.2 | 8.0 | 0.13 | 0.99 | 0.99 | 88 | 1010.5 |
| 20260507034050 | 15 | 65 | 6.4 | 8.0 | 0.05 | 0.91 | 0.91 | 88 | 1009.8 |
| 20260507033550 | 15 | 5 | 9.7 | 19.3 | 0.03 | 0.89 | 0.89 | 88 | 1009.6 |
| 20260507033052 | 15 | 0 | 9.7 | 16.1 | 0.03 | 0.89 | 0.89 | 89 | 1009.9 |
| 20260507032550 | 16 | 344 | 4.8 | 16.1 | 0.03 | 0.89 | 0.89 | 92 | 1009.7 |
| 20260507032051 | 16 | 350 | 3.2 | 6.4 | 0.00 | 0.86 | 0.86 | 92 | 1009.8 |
| 20260507031550 | 16 | 355 | 1.6 | 3.2 | 0.00 | 0.86 | 0.86 | 92 | 1010.0 |
| 20260507031050 | 16 | 159 | 0.0 | 1.6 | 0.00 | 0.86 | 0.86 | 92 | 1010.0 |
| 20260507030550 | 16 | 199 | 1.6 | 3.2 | 0.00 | 0.86 | 0.86 | 92 | 1009.8 |
| 20260507030050 | 16 | 282 | 3.2 | 6.4 | 0.00 | 0.86 | 0.86 | 92 | 1009.9 |
| 20260507025550 | 16 | 9 | 4.8 | 8.0 | 0.00 | 0.86 | 0.86 | 92 | 1009.7 |
| 20260507025052 | 16 | 355 | 3.2 | 6.4 | 0.00 | 0.86 | 0.86 | 93 | 1009.7 |
| 20260507024550 | 16 | 346 | 3.2 | 4.8 | 0.00 | 0.86 | 0.86 | 93 | 1009.5 |
| 20260507024050 | 16 | 293 | 3.2 | 4.8 | 0.00 | 0.86 | 0.86 | 93 | 1009.4 |
| 20260507023550 | 16 | 351 | 1.6 | 4.8 | 0.00 | 0.86 | 0.86 | 93 | 1009.0 |
| 20260507023050 | 16 | 314 | 0.0 | 3.2 | 0.00 | 0.86 | 0.86 | 93 | 1009.1 |
| 20260507022550 | 16 | 314 | 1.6 | 3.2 | 0.00 | 0.86 | 0.86 | 92 | 1009.4 |
| 20260507022050 | 17 | 322 | 1.6 | 4.8 | 0.00 | 0.86 | 0.86 | 92 | 1009.4 |
| 20260507021550 | 17 | 335 | 1.6 | 3.2 | 0.00 | 0.86 | 0.86 | 92 | 1009.3 |
| 20260507021052 | 17 | 335 | 3.2 | 6.4 | 0.03 | 0.86 | 0.86 | 92 | 1009.2 |
| 20260507020550 | 17 | 346 | 3.2 | 6.4 | 0.08 | 0.86 | 0.86 | 93 | 1009.0 |
| 20260507020050 | 17 | 344 | 3.2 | 6.4 | 0.08 | 0.86 | 0.86 | 93 | 1009.0 |
| 20260507015550 | 17 | 24 | 1.6 | 4.8 | 0.13 | 0.86 | 0.86 | 93 | 1008.8 |
| 20260507015050 | 17 | 24 | 1.6 | 3.2 | 0.15 | 0.86 | 0.86 | 93 | 1008.6 |
| 20260507014550 | 17 | 5 | 0.0 | 1.6 | 0.15 | 0.86 | 0.86 | 93 | 1008.7 |
| 20260507014050 | 17 | 317 | 1.6 | 3.2 | 0.15 | 0.86 | 0.86 | 92 | 1008.9 |
| 20260507013550 | 17 | 53 | 1.6 | 4.8 | 0.15 | 0.86 | 0.86 | 92 | 1009.0 |
| 20260507013053 | 17 | 38 | 1.6 | 4.8 | 0.15 | 0.86 | 0.86 | 92 | 1009.2 |
| 20260507012550 | 17 | 355 | 1.6 | 4.8 | 0.15 | 0.86 | 0.86 | 92 | 1009.2 |
| 20260507012050 | 17 | 9 | 3.2 | 6.4 | 0.15 | 0.86 | 0.86 | 92 | 1009.1 |
| 20260507011550 | 18 | 304 | 3.2 | 6.4 | 0.15 | 0.86 | 0.86 | 91 | 1009.2 |
| 20260507011050 | 18 | 19 | 4.8 | 6.4 | 0.13 | 0.84 | 0.84 | 91 | 1009.3 |
| 20260507010550 | 18 | 14 | 4.8 | 8.0 | 0.08 | 0.79 | 0.79 | 91 | 1009.3 |
| 20260507010050 | 18 | 355 | 4.8 | 9.7 | 0.08 | 0.79 | 0.79 | 91 | 1009.4 |
| 20260507005550 | 18 | 345 | 3.2 | 8.0 | 0.03 | 0.74 | 0.74 | 90 | 1009.4 |
| 20260507005052 | 18 | 0 | 1.6 | 4.8 | 0.00 | 0.71 | 0.71 | 90 | 1009.3 |
| 20260507004550 | 18 | 355 | 0.0 | 0.0 | 0.00 | 0.71 | 0.71 | 90 | 1009.3 |
| 20260507004051 | 18 | 355 | 0.0 | 0.0 | 0.00 | 0.71 | 0.71 | 88 | 1009.0 |
| 20260507003550 | 18 | 355 | 0.0 | 0.0 | 0.00 | 0.71 | 0.71 | 88 | 1008.8 |
| 20260507003052 | 18 | 355 | 0.0 | 0.0 | 0.00 | 0.71 | 0.71 | 88 | 1008.8 |
| 20260507002550 | 18 | 234 | 0.0 | 0.0 | 0.00 | 0.71 | 0.71 | 88 | 1008.7 |
| 20260507002051 | 18 | 234 | 0.0 | 0.0 | 0.00 | 0.71 | 0.71 | 86 | 1008.4 |
| 20260507001551 | 19 | 234 | 0.0 | 1.6 | 0.00 | 0.71 | 0.71 | 84 | 1008.8 |
| 20260507001051 | 19 | 234 | 0.0 | 3.2 | 0.00 | 0.71 | 0.71 | 82 | 1008.5 |
| 20260507000550 | 20 | 235 | 1.6 | 3.2 | 0.00 | 0.71 | 0.71 | 80 | 1008.7 |
| 20260507000051 | 20 | 192 | 3.2 | 9.7 | 0.00 | 0.71 | 0.71 | 79 | 1008.7 |
| 20260506235551 | 20 | 196 | 3.2 | 6.4 | 0.00 | 0.71 | 0.71 | 79 | 1008.4 |
| 20260506235053 | 20 | 227 | 4.8 | 9.7 | 0.00 | 0.71 | 0.71 | 79 | 1008.2 |
| 20260506234551 | 20 | 242 | 3.2 | 11.3 | 0.00 | 0.71 | 0.71 | 79 | 1008.2 |
| 20260506234051 | 20 | 209 | 1.6 | 6.4 | 0.00 | 0.71 | 0.71 | 79 | 1008.1 |
| 20260506233551 | 20 | 253 | 3.2 | 6.4 | 0.00 | 0.71 | 0.71 | 78 | 1008.2 |
| 20260506233051 | 20 | 211 | 4.8 | 14.5 | 0.00 | 0.71 | 0.71 | 78 | 1008.0 |
| 20260506232551 | 20 | 180 | 4.8 | 11.3 | 0.00 | 0.71 | 0.71 | 78 | 1007.9 |
| 20260506232051 | 20 | 198 | 4.8 | 16.1 | 0.00 | 0.71 | 0.71 | 78 | 1007.7 |
| 20260506231551 | 20 | 178 | 3.2 | 9.7 | 0.00 | 0.71 | 0.71 | 78 | 1007.6 |
| 20260506231053 | 20 | 188 | 3.2 | 8.0 | 0.00 | 0.71 | 0.71 | 78 | 1007.7 |
| 20260506230551 | 20 | 180 | 1.6 | 9.7 | 0.00 | 0.71 | 0.71 | 78 | 1007.7 |
| 20260506230051 | 20 | 186 | 3.2 | 6.4 | 0.00 | 0.71 | 0.71 | 78 | 1007.8 |
| 20260506225551 | 20 | 180 | 4.8 | 11.3 | 0.00 | 0.71 | 0.71 | 77 | 1007.8 |
| 20260506225051 | 20 | 205 | 3.2 | 9.7 | 0.00 | 0.71 | 0.71 | 77 | 1007.8 |
| 20260506224551 | 20 | 202 | 3.2 | 9.7 | 0.00 | 0.71 | 0.71 | 77 | 1007.7 |
| 20260506224051 | 20 | 166 | 3.2 | 9.7 | 0.00 | 0.71 | 0.71 | 77 | 1007.7 |
| 20260506223551 | 20 | 164 | 3.2 | 9.7 | 0.00 | 0.71 | 0.71 | 77 | 1007.8 |
| 20260506223053 | 21 | 182 | 6.4 | 14.5 | 0.00 | 0.71 | 0.71 | 77 | 1007.6 |
| 20260506222551 | 21 | 165 | 6.4 | 14.5 | 0.00 | 0.71 | 0.71 | 77 | 1007.6 |
| 20260506222051 | 21 | 162 | 4.8 | 12.9 | 0.00 | 0.71 | 0.71 | 77 | 1007.6 |
| 20260506221551 | 21 | 207 | 3.2 | 16.1 | 0.00 | 0.71 | 0.71 | 76 | 1007.7 |
| 20260506221051 | 21 | 183 | 3.2 | 8.0 | 0.00 | 0.71 | 0.71 | 77 | 1007.9 |
| 20260506220551 | 20 | 218 | 4.8 | 14.5 | 0.00 | 0.71 | 0.71 | 77 | 1007.8 |
| 20260506220051 | 20 | 190 | 4.8 | 14.5 | 0.00 | 0.71 | 0.71 | 77 | 1007.6 |
| 20260506215551 | 20 | 209 | 4.8 | 14.5 | 0.00 | 0.71 | 0.71 | 77 | 1007.6 |
| 20260506215053 | 20 | 197 | 3.2 | 9.7 | 0.00 | 0.71 | 0.71 | 78 | 1007.7 |
| 20260506214551 | 20 | 206 | 3.2 | 9.7 | 0.00 | 0.71 | 0.71 | 77 | 1007.7 |
| 20260506214051 | 20 | 169 | 3.2 | 12.9 | 0.00 | 0.71 | 0.71 | 78 | 1007.8 |
| 20260506213551 | 20 | 187 | 4.8 | 11.3 | 0.00 | 0.71 | 0.71 | 77 | 1007.7 |
| 20260506213051 | 20 | 192 | 4.8 | 11.3 | 0.00 | 0.71 | 0.71 | 78 | 1007.6 |
| 20260506212551 | 20 | 207 | 6.4 | 11.3 | 0.00 | 0.71 | 0.71 | 78 | 1007.6 |
| 20260506212051 | 20 | 191 | 8.0 | 20.9 | 0.00 | 0.71 | 0.71 | 77 | 1007.6 |
| 20260506211551 | 20 | 178 | 6.4 | 9.7 | 0.00 | 0.71 | 0.71 | 78 | 1007.6 |
| 20260506211053 | 20 | 193 | 8.0 | 17.7 | 0.00 | 0.71 | 0.71 | 78 | 1007.6 |
| 20260506210551 | 20 | 184 | 8.0 | 17.7 | 0.00 | 0.71 | 0.71 | 78 | 1007.5 |
| 20260506210051 | 20 | 171 | 9.7 | 17.7 | 0.00 | 0.71 | 0.71 | 78 | 1007.5 |
| 20260506205551 | 20 | 175 | 8.0 | 22.5 | 0.00 | 0.71 | 0.71 | 79 | 1007.5 |
| 20260506205051 | 20 | 169 | 6.4 | 16.1 | 0.00 | 0.71 | 0.71 | 79 | 1007.4 |
| 20260506204551 | 20 | 188 | 8.0 | 24.1 | 0.00 | 0.71 | 0.71 | 79 | 1007.5 |
| 20260506204051 | 20 | 189 | 8.0 | 20.9 | 0.00 | 0.71 | 0.71 | 79 | 1007.4 |
| 20260506203551 | 20 | 205 | 8.0 | 19.3 | 0.00 | 0.71 | 0.71 | 79 | 1007.2 |
| 20260506203053 | 20 | 197 | 9.7 | 19.3 | 0.00 | 0.71 | 0.71 | 78 | 1007.3 |
| 20260506202551 | 20 | 192 | 9.7 | 22.5 | 0.00 | 0.71 | 0.71 | 79 | 1007.3 |
| 20260506202051 | 20 | 221 | 9.7 | 19.3 | 0.00 | 0.71 | 0.71 | 79 | 1007.3 |
| 20260506201551 | 20 | 201 | 8.0 | 19.3 | 0.00 | 0.71 | 0.71 | 79 | 1007.3 |
| 20260506201051 | 20 | 231 | 8.0 | 17.7 | 0.00 | 0.71 | 0.71 | 79 | 1007.3 |
| 20260506200551 | 20 | 241 | 6.4 | 17.7 | 0.00 | 0.71 | 0.71 | 79 | 1007.3 |
| 20260506200051 | 20 | 167 | 6.4 | 14.5 | 0.00 | 0.71 | 0.71 | 79 | 1007.4 |
| 20260506195551 | 20 | 248 | 8.0 | 24.1 | 0.00 | 0.71 | 0.71 | 79 | 1007.4 |
| 20260506195053 | 20 | 184 | 11.3 | 17.7 | 0.00 | 0.71 | 0.71 | 80 | 1007.3 |
| 20260506194551 | 20 | 205 | 12.9 | 30.6 | 0.00 | 0.71 | 0.71 | 80 | 1007.3 |
| 20260506194051 | 20 | 184 | 11.3 | 29.0 | 0.00 | 0.71 | 0.71 | 80 | 1007.4 |
| 20260506193551 | 20 | 187 | 9.7 | 22.5 | 0.00 | 0.71 | 0.71 | 79 | 1007.4 |
| 20260506193053 | 20 | 221 | 9.7 | 20.9 | 0.00 | 0.71 | 0.71 | 80 | 1007.5 |
| 20260506192551 | 19 | 161 | 9.7 | 24.1 | 0.00 | 0.71 | 0.71 | 81 | 1007.6 |
| 20260506192051 | 19 | 182 | 9.7 | 22.5 | 0.00 | 0.71 | 0.71 | 80 | 1007.7 |
| 20260506191551 | 19 | 190 | 8.0 | 20.9 | 0.00 | 0.71 | 0.71 | 82 | 1007.8 |
| 20260506191051 | 18 | 183 | 9.7 | 19.3 | 0.00 | 0.71 | 0.71 | 82 | 1007.8 |
| 20260506190551 | 18 | 212 | 9.7 | 19.3 | 0.00 | 0.71 | 0.71 | 82 | 1007.9 |
| 20260506190051 | 18 | 193 | 9.7 | 16.1 | 0.00 | 0.71 | 0.71 | 82 | 1007.9 |
| 20260506185551 | 18 | 170 | 11.3 | 17.7 | 0.00 | 0.71 | 0.71 | 82 | 1008.0 |
| 20260506185053 | 18 | 182 | 11.3 | 25.7 | 0.00 | 0.71 | 0.71 | 83 | 1007.9 |
| 20260506184551 | 18 | 205 | 11.3 | 32.2 | 0.00 | 0.71 | 0.71 | 82 | 1008.0 |
| 20260506184051 | 18 | 213 | 11.3 | 22.5 | 0.00 | 0.71 | 0.71 | 82 | 1008.3 |
| 20260506183551 | 18 | 186 | 9.7 | 24.1 | 0.00 | 0.71 | 0.71 | 82 | 1008.5 |
| 20260506183051 | 18 | 216 | 8.0 | 12.9 | 0.00 | 0.71 | 0.71 | 83 | 1008.6 |
| 20260506182551 | 18 | 196 | 8.0 | 20.9 | 0.00 | 0.71 | 0.71 | 83 | 1008.4 |
| 20260506182051 | 18 | 188 | 8.0 | 17.7 | 0.00 | 0.71 | 0.71 | 82 | 1008.2 |
| 20260506181551 | 18 | 189 | 6.4 | 24.1 | 0.00 | 0.71 | 0.71 | 83 | 1008.4 |
| 20260506181053 | 18 | 171 | 8.0 | 24.1 | 0.00 | 0.71 | 0.71 | 83 | 1008.3 |
| 20260506180551 | 18 | 161 | 8.0 | 17.7 | 0.00 | 0.71 | 0.71 | 83 | 1008.1 |
| 20260506180051 | 18 | 169 | 8.0 | 19.3 | 0.00 | 0.71 | 0.71 | 84 | 1008.4 |
| 20260506175551 | 18 | 186 | 9.7 | 19.3 | 0.00 | 0.71 | 0.71 | 83 | 1008.4 |
| 20260506175051 | 18 | 188 | 9.7 | 20.9 | 0.00 | 0.71 | 0.71 | 84 | 1008.4 |